Regional Weather Roundup
Issued by NWS

Home | Current Version | Previous Version | Graphics & Text | Print | Product List | Glossary On
Versions: 1 2 3 4 5 6 7 8 9 10 11 12 13 14 15 16 17 18 19 20 21 22 23 24 25 26 27 28 29 30 31 32 33 34 35 36 37 38 39 40 41 42 43 44 45 46 47 48 49 50
000
ASUS45 KTFX 130219
RWRMT
MONTANA HOURLY WEATHER ROUNDUP
NATIONAL WEATHER SERVICE GREAT FALLS MT
819 PM MDT SAT JUL 12 2014

NOTE: "FAIR" INDICATES FEW OR NO CLOUDS BELOW 12000 FEET WITH NO
SIGNIFICANT WEATHER AND/OR OBSTRUCTIONS TO VISIBILITY.

* THESE STATIONS ARE NOT UNDER NWS QUALITY CONTROL. THEY DO NOT
   REPORT WEATHER SUCH AS PRECIPITATION OR FOG.

MTZ001>007-043-130300-
WEST OF THE DIVIDE
CITY           SKY/WX    TMP DP  RH WIND       PRES   REMARKS
KALISPELL      CLEAR     90  52  27 SW3       30.13F
MISSOULA       CLEAR     90  39  17 N13       30.13S
BUTTE          CLOUDY    77  46  33 S8        30.31S
MULLAN PASS    PTCLDY    72  39  30 CALM      30.35S
* ESSEX        N/A       75  43  32 W2         N/A
* LINCOLN      N/A       89  28  11 SE3        N/A
* LOOKOUT PASS N/A       76  47  36 N/A        N/A
* POLSON       N/A       82  46  28 NW1        N/A
* RONAN APT    PTCLDY    84  52  33 N6         N/A
* SEELEY LAKE  N/A       88  39  18 W5G11      N/A
* THOMP F APT  PTCLDY    71  50  48 VRB7G17    N/A
* YAAK HILL    N/A       95  43  17 SW1        N/A
$$

MTZ008-052>055-130300-
SOUTHWEST MONTANA
CITY           SKY/WX    TMP DP  RH WIND       PRES   REMARKS
W YELLOWSTONE  CLOUDY    64  57  78 SW3       30.41R
* THREE FORKS  CLOUDY    82  82 100 N/A        N/A   HI  95
* BOULDER HILL N/A       76  46  35 SW10       N/A
* MONIDA PASS  N/A       71  48  44 NE8        N/A
* RAYNOLDS PAS N/A       65  53  65 S1         N/A
* WHITEHALL    N/A       81  52  37 E1G6       N/A
* WISE RIVER   N/A       73  55  53 NW3G8      N/A
$$

MTZ009>010-012-014-046-048-049-054-130300-
EAST SLOPES AND CENTRAL MONTANA
CITY           SKY/WX    TMP DP  RH WIND       PRES   REMARKS
CUT BANK       CLEAR     82  48  31 E8        30.21S
GREAT FALLS    CLEAR     82  39  22 NE7       30.19S
HELENA         PTCLDY    90  43  19 N7        30.16R
* CONRAD       CLEAR     84  50  31 N/A        N/A
* DEARBORN     N/A       85  37  18 N12        N/A
* MONARCH      N/A       76  25  15 VRB9       N/A
* PENDROY      N/A       80  40  24 NE6        N/A
* ROGERS PASS  N/A       71  43  37 NW1        N/A
* SAINT MARY   N/A       81  50  34 NE7G13     N/A
* SWEET GRASS  N/A       77  54  45 NE9        N/A
* WHITE SULPH  N/A       79  44  29 NE7G14     N/A
$$

MTZ011-013-016-021-035-040-045-047-050-051-130300-
NORTH CENTRAL MONTANA
CITY           SKY/WX    TMP DP  RH WIND       PRES   REMARKS
LEWISTOWN      CLEAR     82  39  22 NE6       30.24S
* FORT BENTON  CLEAR     84  48  29 NE7       30.16S
* CHESTER      N/A       84  43  24 NE9G19     N/A
* DENTON       N/A       85  38  19 N4         N/A
* GEYSER       N/A       82  36  19 NE7        N/A
* JUDITH GAP   N/A       80  42  26 N/A        N/A
* LOMA         N/A       82  53  37 NE9        N/A
$$

MTZ017>020-022>027-061-062-130300-
NORTHEAST MONTANA
CITY           SKY/WX    TMP DP  RH WIND       PRES   REMARKS
GLENDIVE       CLEAR     75  45  34 N8        30.15R
JORDAN         CLEAR     82  41  23 N10       30.16R
SIDNEY         CLEAR     75  48  39 NW8       30.12R
WOLF POINT     CLEAR     81  45  28 N14       30.12R
* BEAVER HILL  N/A       76  47  36 NW12G19    N/A
* CIRCLE       N/A       79  51  38 N/A        N/A
* LINDSAY DVD  N/A       73  49  43 NW7G12     N/A
* NAVAJO       N/A       72  53  51 NW10       N/A
$$

MTZ028>042-056>058-130300-
SOUTHCENTRAL AND SOUTHEAST MONTANA
CITY           SKY/WX    TMP DP  RH WIND       PRES   REMARKS
BAKER          CLEAR     75  50  42 NW10      30.15S
BILLINGS       MOCLDY    84  43  24 SE8       30.20S
MILES CITY     CLEAR     81  50  34 N12       30.15R
* LAUREL APT   PTCLDY    81  48  32 N/A        N/A
* ROUNDUP APT  PTCLDY    84  43  24 NE8        N/A
* ALZADA       N/A       77  51  40 NW4        N/A
* HYSHAM       N/A       83  41  23 NE3G8      N/A
* LAME DEER    N/A       76  44  32 VRB7       N/A
* REED POINT   N/A       84  48  29 E8         N/A
* ROSCOE HILL  N/A       75  42  31 E6         N/A
$$

REGIONAL REPORTS...DAKOTAS
CITY           SKY/WX    TMP DP  RH WIND       PRES   REMARKS
WILLISTON      CLEAR     77  52  42 N10       30.08R
DICKINSON      CLEAR     72  52  49 N8        30.09R
CROSBY         CLEAR     68  57  68 NW9       30.07R
TIOGA          CLEAR     68  55  63 N12       30.10R
WATFORD CITY   CLEAR     73  48  41 NW13G21   30.06S
BISMARCK       CLEAR     77  54  45 NW10      30.03S
GRAND FORKS    LGT RAIN  61  57  87 NW5       29.93F
FARGO          FAIR      68  54  61 N16       29.94R
BUFFALO SD     CLEAR     75  54  48 N12       30.09R
RAPID CITY     PTCLDY    72  64  76 W7        30.16S
$$

REGIONAL REPORTS...WYOMING/IDAHO/WASHINGTON
CITY           SKY/WX    TMP DP  RH WIND       PRES   REMARKS
GILLETTE       PTCLDY    79  50  36 N10       30.25R
SHERIDAN       MOCLDY    75  55  50 W7        30.23R
CODY           CLOUDY    72  54  53 N9        30.32R
YELLOWSTONE LA CLOUDY    55  54  96 CALM      30.53R
SALMON         PTCLDY    82  54  38 N3        30.13R
MULLAN PASS    PTCLDY    72  39  30 CALM      30.35S
SAND POINT     PTCLDY    84  59  43 CALM      30.07F HI  84
SPOKANE        FAIR      93  34  12 NE9       30.09S
$$

REGIONAL REPORTS...ALBERTA
CITY           SKY/WX    TMP DP  RH WIND       PRES   REMARKS
CALGARY        FAIR      75  46  36 E10       30.23R
LETHBRIDGE     N/A       77  59  54 E6        30.20R
MEDICINE HAT   PTCLDY    84  46  26 NW7       30.14S
EDMONTON       N/A       79  61  54 N3        30.15S
WATERTON GATE  N/A       75  57  54 NE6        N/A
CARDSTON       N/A       75  57  54 NE5        N/A
MILK RIVER     N/A       75  52  45 E8         N/A
$$

REGIONAL REPORTS...SASKATCHEWAN
CITY           SKY/WX    TMP DP  RH WIND       PRES   REMARKS
SWIFT CURRENT  CLEAR     70  55  59 N10G17    30.14R
REGINA         N/A       66  50  56 N10       30.08R
VAL MARIE      N/A       72  57  59 N6         N/A
ASSINIBOIA     N/A       70  54  57 N7         N/A
CORONACH       N/A       72  54  53 NW7        N/A

$$




USA.gov is the U.S. government's official web portal to all federal, state and local government web resources and services.